Location: Doverdale
(52.2833°N, 2.2000°W)
Time: 12:09:12
(UTC+00:00)

CZ-4C R/B - Pass Details

Date: 29 October 2020
Orbit: 624 x 1378 km, 63.4° (Epoch: 24 November)

Event Time Altitude Azimuth Distance (km) Brightness Sun altitude
Rises 20:25:57 0° 313° (NW) 3,743 6.5 -33.9°
Reaches altitude 10° 20:28:23 10° 312° (NW) 2,892 5.7 -34.2°
Enters shadow 20:34:49 71° 265° (W) 1,257 3.0 -35.1°
